TimeIST,TemperatureF,Dew PointF,Humidity,Sea Level PressureIn,VisibilityMPH,Wind Direction,Wind SpeedMPH,Gust SpeedMPH,PrecipitationIn,Events,Conditions,WindDirDegrees,DateUTC
1:00 AM,46,44,90,29.60,,South,22.4,,,,,190,2013-05-27 00:00:00
6:00 AM,44.6,44.6,100,29.44,0.9,SSW,8.1,-,N/A,,Scattered Clouds,210,2013-05-27 05:00:00
6:30 AM,44.6,44.6,100,29.44,0.9,SSW,9.2,-,N/A,,Scattered Clouds,210,2013-05-27 05:30:00
7:00 AM,44,44,99,29.47,1,SSW,6.7,,,Rain,Light Rain Showers,210,2013-05-27 06:00:00
7:00 AM,44.6,44.6,100,29.44,1.2,SSW,6.9,-,N/A,Rain,Light Rain Showers,210,2013-05-27 06:00:00
7:30 AM,42.8,42.8,100,29.44,5.0,WSW,9.2,-,N/A,,Scattered Clouds,240,2013-05-27 06:30:00
8:00 AM,44.6,42.8,93,29.44,6.2,SW,6.9,-,N/A,,Scattered Clouds,220,2013-05-27 07:00:00
8:30 AM,46.4,42.8,87,29.42,6.2,SSW,8.1,-,N/A,,Scattered Clouds,210,2013-05-27 07:30:00
9:00 AM,48.2,42.8,82,29.42,6.2,SW,11.5,-,N/A,,Mostly Cloudy,220,2013-05-27 08:00:00
9:30 AM,44.6,42.8,93,29.42,5.0,WSW,16.1,-,N/A,,Scattered Clouds,250,2013-05-27 08:30:00
10:00 AM,48.2,42.8,82,29.42,6.2,SW,13.8,-,N/A,,Scattered Clouds,230,2013-05-27 09:00:00
10:30 AM,50.0,41.0,71,29.42,6.2,WSW,16.1,-,N/A,,Scattered Clouds,240,2013-05-27 09:30:00
11:00 AM,50.0,39.2,66,29.42,6.2,WSW,13.8,-,N/A,,Scattered Clouds,240,2013-05-27 10:00:00
11:30 AM,50.0,42.8,76,29.42,6.2,WSW,16.1,-,N/A,Rain,Light Rain Showers,240,2013-05-27 10:30:00
12:00 PM,50.0,42.8,76,29.39,6.2,WSW,15.0,-,N/A,,Scattered Clouds,250,2013-05-27 11:00:00
12:30 PM,50.0,41.0,71,29.39,6.2,WSW,18.4,-,N/A,,Scattered Clouds,250,2013-05-27 11:30:00
1:00 PM,52,40,52,29.40,22,WSW,17.9,,,,Mostly Cloudy,240,2013-05-27 12:00:00
1:00 PM,51.8,39.2,62,29.39,6.2,WSW,17.3,-,N/A,,Scattered Clouds,240,2013-05-27 12:00:00
1:30 PM,50.0,44.6,82,29.39,6.2,West,16.1,-,N/A,,Scattered Clouds,270,2013-05-27 12:30:00
2:00 PM,51.8,41.0,67,29.39,6.2,WSW,15.0,-,N/A,,Mostly Cloudy,240,2013-05-27 13:00:00
2:30 PM,51.8,39.2,62,29.39,6.2,SW,16.1,-,N/A,Rain,Light Rain Showers,230,2013-05-27 13:30:00
3:00 PM,50.0,42.8,76,29.39,6.2,WSW,16.1,-,N/A,Rain,Light Rain Showers,250,2013-05-27 14:00:00
3:30 PM,50.0,44.6,82,29.39,6.2,SW,10.4,-,N/A,,Mostly Cloudy,220,2013-05-27 14:30:00
4:00 PM,46.4,46.4,100,29.39,6.2,SW,13.8,-,N/A,,Mostly Cloudy,230,2013-05-27 15:00:00
4:30 PM,50.0,44.6,82,29.39,6.2,WSW,13.8,-,N/A,,Mostly Cloudy,240,2013-05-27 15:30:00
5:00 PM,50.0,44.6,82,29.39,6.2,WSW,13.8,-,N/A,Rain,Light Rain Showers,240,2013-05-27 16:00:00
5:30 PM,48.2,44.6,87,29.39,6.2,WSW,16.1,-,N/A,,Mostly Cloudy,250,2013-05-27 16:30:00
6:00 PM,50.0,44.6,82,29.39,6.2,WSW,16.1,-,N/A,,Scattered Clouds,240,2013-05-27 17:00:00
7:00 PM,50,43,68,29.42,19,WSW,13.4,,,,Partly Cloudy,250,2013-05-27 18:00:00